Location: ???????
(55.4362°N, 38.1183°E)
Time: 03:42:08
(UTC+00:00)

USA 281 - Pass Details

Date: 17 June 2021
Orbit: 1078 x 1081 km, 106.0° (Epoch: 18 July)

Event Time Altitude Azimuth Distance (km) Brightness Sun altitude
Rises 22:34:06 0° 122° (ESE) 3,876 6.0 -9.9°
Reaches altitude 10° 22:36:41 10° 117° (ESE) 2,923 5.4 -9.8°
Maximum altitude 22:42:54 48° 46° (NE) 1,391 4.3 -9.6°
Drops below altitude 10° 22:49:10 10° 335° (NNW) 2,935 6.2 -9.3°
Sets 22:51:46 0° 330° (NNW) 3,894 6.8 -9.2°
